GW2092 Weather Reports


time (UTC)temp
F
wind
direction
speed
knots
gust
knots
rain 1hr
in
rain 24hr
in
rain mn
in
humidity
%
barometer
mb
20260903201556 101 0 0.0 4.3 0.00 0.00 0.00 38 1013.7
20260903200058 99 173 0.9 6.1 0.00 0.00 0.00 40 1013.8
20260903194552 100 0 0.9 5.2 0.00 0.00 0.00 40 1013.9
20260903193104 100 134 0.9 3.5 0.00 0.00 0.00 39 1014.1
20260903191554 100 74 0.9 4.3 0.00 0.00 0.00 40 1014.4
20260903190054 99 235 0.0 4.3 0.00 0.00 0.00 41 1014.5
20260903184547 99 226 0.9 7.0 0.00 0.00 0.00 42 1014.9
20260903183056 100 232 0.9 3.5 0.00 0.00 0.00 41 1015.0
20260903181553 99 246 0.9 4.3 0.00 0.00 0.00 42 1015.1
20260903180053 98 283 0.9 5.2 0.00 0.00 0.00 44 1015.3
20260903174547 98 212 0.0 3.5 0.00 0.00 0.00 45 1015.6
20260903173055 97 138 0.9 5.2 0.00 0.00 0.00 45 1015.7
20260903171600 96 204 0.0 7.8 0.00 0.00 0.00 46 1015.9
20260903170046 95 127 0.9 5.2 0.00 0.00 0.00 48 1015.9
20260903164554 94 192 0.9 8.7 0.00 0.00 0.00 49 1016.0
20260903163052 94 208 0.0 6.1 0.00 0.00 0.00 51 1016.3
20260903161549 93 167 0.0 7.0 0.00 0.00 0.00 50 1016.5
20260903160057 92 130 0.9 5.2 0.00 0.00 0.00 52 1016.6
20260903154554 92 122 0.0 5.2 0.00 0.00 0.00 53 1016.6
20260903153049 91 180 1.7 6.1 0.00 0.00 0.00 55 1016.7
20260903151607 90 0 0.0 6.1 0.00 0.00 0.00 57 1016.8
20260903144549 87 150 1.7 6.1 0.00 0.00 0.00 62 1016.7
20260903143102 86 183 0.9 4.3 0.00 0.00 0.00 64 1016.8
20260903141555 84 154 0.9 5.2 0.00 0.00 0.00 67 1017.0
20260903140055 82 139 0.9 5.2 0.00 0.00 0.00 69 1017.2
20260903134553 81 194 0.0 2.6 0.00 0.00 0.00 72 1017.3
20260903133059 79 107 0.0 3.5 0.00 0.00 0.00 75 1017.2
20260903131556 78 219 0.0 3.5 0.00 0.00 0.00 77 1016.8
20260903130057 77 0 0.0 3.5 0.00 0.00 0.00 79 1016.8
20260903124549 76 115 0.0 1.7 0.00 0.00 0.00 80 1016.7
20260903123046 74 198 0.0 1.7 0.00 0.00 0.00 83 1016.7
20260903121554 72 0 0.0 0.0 0.00 0.00 0.00 85 1016.7
20260903120055 72 0 0.0 0.9 0.00 0.00 0.00 86 1016.7
20260903114548 71 0 0.0 0.0 0.00 0.00 0.00 84 1016.6
20260903113046 72 0 0.0 0.0 0.00 0.00 0.00 84 1016.6
20260903111545 72 0 0.0 0.0 0.00 0.00 0.00 83 1016.5
20260903110047 72 0 0.0 0.0 0.00 0.00 0.00 84 1016.6
20260903104550 72 0 0.0 0.0 0.00 0.00 0.00 82 1016.5
20260903103048 72 0 0.0 0.0 0.00 0.00 0.00 82 1016.4
20260903101546 72 0 0.0 0.0 0.00 0.00 0.00 82 1016.5
20260903100045 73 0 0.0 0.0 0.00 0.00 0.00 80 1016.5
20260903094559 73 0 0.0 0.0 0.00 0.00 0.00 80 1016.4
20260903093054 74 0 0.0 0.0 0.00 0.00 0.00 78 1016.4
20260903091556 74 0 0.0 0.0 0.00 0.00 0.00 78 1016.3
20260903090053 75 0 0.0 0.0 0.00 0.00 0.00 76 1016.3
20260903084548 76 0 0.0 0.0 0.00 0.00 0.00 75 1016.3
20260903083046 77 0 0.0 0.9 0.00 0.00 0.00 74 1016.2
20260903081555 77 0 0.0 0.0 0.00 0.00 0.00 73 1016.1
20260903080054 78 0 0.0 0.0 0.00 0.00 0.00 72 1015.9
20260903074547 78 0 0.0 0.9 0.00 0.00 0.00 72 1015.8
20260903073057 78 131 0.0 0.9 0.00 0.00 0.00 73 1015.8
20260903071553 78 0 0.0 0.0 0.00 0.00 0.00 72 1015.9
20260903070047 78 0 0.0 0.9 0.00 0.00 0.00 71 1015.9
20260903064545 79 0 0.0 0.9 0.00 0.00 0.00 70 1015.7
20260903063052 79 0 0.0 0.9 0.00 0.00 0.00 69 1015.7
20260903061550 80 0 0.0 0.0 0.00 0.00 0.00 68 1015.5
20260903060047 80 0 0.0 0.0 0.00 0.00 0.00 68 1015.6
20260903054553 81 162 0.0 1.7 0.00 0.00 0.00 67 1015.4
20260903053046 81 0 0.0 0.0 0.00 0.00 0.00 66 1015.4
20260903051551 81 0 0.0 0.9 0.00 0.00 0.00 66 1015.7
20260903050055 81 0 0.0 0.9 0.00 0.00 0.00 66 1015.6
20260903044550 82 0 0.0 0.9 0.00 0.00 0.00 65 1015.6
20260903043047 82 0 0.0 0.9 0.00 0.00 0.00 65 1015.6
20260903041554 82 145 0.0 0.9 0.00 0.00 0.00 64 1015.6
20260903040053 81 0 0.0 0.9 0.00 0.00 0.00 64 1015.6
20260903034548 82 0 0.0 0.9 0.00 0.00 0.00 62 1015.7
20260903033055 82 0 0.0 0.0 0.00 0.00 0.00 61 1015.7
20260903031557 83 0 0.0 0.0 0.00 0.00 0.00 59 1015.6
20260903030047 84 144 0.0 0.9 0.00 0.00 0.00 58 1015.5
20260903024548 84 0 0.0 0.0 0.00 0.00 0.00 57 1015.3
20260903023102 84 0 0.0 0.0 0.00 0.00 0.00 57 1015.0
20260903021549 84 0 0.0 0.0 0.00 0.00 0.00 57 1014.7
20260903020050 85 0 0.0 0.0 0.00 0.00 0.00 57 1014.5
20260903014549 85 0 0.0 0.0 0.00 0.00 0.00 55 1014.4
20260903013057 86 0 0.0 0.0 0.00 0.00 0.00 54 1014.1
20260903011544 87 0 0.0 0.0 0.00 0.00 0.00 53 1014.1
20260903010051 89 0 0.0 0.0 0.00 0.00 0.00 50 1014.0
20260903004546 91 0 0.0 0.0 0.00 0.00 0.00 46 1013.9
20260903003055 93 0 0.0 0.0 0.00 0.00 0.00 44 1013.9
20260903001549 94 0 0.0 0.0 0.00 0.00 0.00 43 1013.9
20260903000056 95 199 0.0 0.9 0.00 0.00 0.00 41 1013.9
20260902234555 96 0 0.0 2.6 0.00 0.00 0.00 40 1013.9
20260902233052 97 0 0.0 3.5 0.00 0.00 0.00 39 1013.9
20260902231558 98 173 0.0 3.5 0.00 0.00 0.00 37 1014.0
20260902230105 99 141 0.9 3.5 0.00 0.00 0.00 35 1014.1
20260902224552 101 194 0.9 4.3 0.00 0.00 0.00 34 1014.3
20260902223046 102 196 0.9 4.3 0.00 0.00 0.00 33 1014.3
20260902221553 104 94 0.0 1.7 0.00 0.00 0.00 33 1014.3
20260902220052 104 128 0.0 1.7 0.00 0.00 0.00 33 1014.3
20260902214548 103 0 0.0 1.7 0.00 0.00 0.00 34 1014.6
20260902213051 102 0 0.0 1.7 0.00 0.00 0.00 35 1014.8
20260902211551 102 183 0.0 3.5 0.00 0.00 0.00 34 1014.9
20260902210047 101 0 0.0 3.5 0.00 0.00 0.00 36 1015.0
20260902204556 103 150 0.9 7.0 0.00 0.00 0.00 35 1015.1
20260902203103 103 0 0.9 3.5 0.00 0.00 0.00 36 1015.4